Time,TemperatureF,DewpointF,PressureIn,WindDirection,WindDirectionDegrees,WindSpeedMPH,WindSpeedGustMPH,Humidity,HourlyPrecipIn,Conditions,Clouds,dailyrainin,SolarRadiationWatts/m^2,SoftwareType,DateUTC
2013-05-29 00:01:00,78.0,47.0,-100.00,SSW,208,8.0,11.0,34,0.00,,,0.00,1.000000,,2013-05-29 07:01:00,
2013-05-29 00:11:00,78.0,47.0,-100.00,SSW,208,8.0,11.0,34,0.00,,,0.00,1.000000,,2013-05-29 07:11:00,
2013-05-29 00:34:00,77.0,47.0,-100.00,SW,225,7.0,11.0,35,0.00,,,0.00,1.000000,,2013-05-29 07:34:00,
2013-05-29 00:42:00,77.0,47.0,-100.00,SW,225,7.0,11.0,35,0.00,,,0.00,1.000000,,2013-05-29 07:42:00,
2013-05-29 00:52:00,77.0,47.0,-100.00,SW,225,7.0,11.0,35,0.00,,,0.00,1.000000,,2013-05-29 07:52:00,
2013-05-29 01:02:00,77.0,47.0,-100.00,SW,225,7.0,11.0,35,0.00,,,0.00,1.000000,,2013-05-29 08:02:00,
2013-05-29 01:11:00,77.0,47.0,-100.00,SW,225,7.0,11.0,35,0.00,,,0.00,1.000000,,2013-05-29 08:11:00,
2013-05-29 01:32:00,75.0,48.0,-100.00,SW,218,4.0,7.0,39,0.00,,,0.00,1.000000,,2013-05-29 08:32:00,
2013-05-29 01:42:00,75.0,48.0,-100.00,SW,218,4.0,7.0,39,0.00,,,0.00,1.000000,,2013-05-29 08:42:00,
2013-05-29 01:52:00,75.0,48.0,-100.00,SW,218,4.0,7.0,39,0.00,,,0.00,1.000000,,2013-05-29 08:52:00,
2013-05-29 02:01:00,75.0,48.0,-100.00,SW,218,4.0,7.0,39,0.00,,,0.00,1.000000,,2013-05-29 09:01:00,
2013-05-29 02:11:00,75.0,48.0,-100.00,SW,218,4.0,7.0,39,0.00,,,0.00,1.000000,,2013-05-29 09:11:00,
2013-05-29 02:42:00,74.0,48.0,-100.00,SSW,194,5.0,7.0,40,0.00,,,0.00,1.000000,,2013-05-29 09:42:00,
2013-05-29 02:52:00,74.0,48.0,-100.00,SSW,194,5.0,7.0,40,0.00,,,0.00,1.000000,,2013-05-29 09:52:00,
2013-05-29 03:02:00,74.0,48.0,-100.00,SSW,194,5.0,7.0,40,0.00,,,0.00,1.000000,,2013-05-29 10:02:00,
2013-05-29 03:12:00,74.0,48.0,-100.00,SSW,194,5.0,7.0,40,0.00,,,0.00,1.000000,,2013-05-29 10:12:00,
2013-05-29 03:33:00,71.0,52.0,-100.00,SE,136,5.0,7.0,51,0.00,,,0.00,1.000000,,2013-05-29 10:33:00,
2013-05-29 03:42:00,71.0,52.0,-100.00,SE,136,5.0,7.0,51,0.00,,,0.00,1.000000,,2013-05-29 10:42:00,
2013-05-29 03:53:00,71.0,52.0,-100.00,SE,136,5.0,7.0,51,0.00,,,0.00,1.000000,,2013-05-29 10:53:00,
2013-05-29 04:02:00,71.0,52.0,-100.00,SE,136,5.0,7.0,51,0.00,,,0.00,1.000000,,2013-05-29 11:02:00,
2013-05-29 04:11:00,71.0,52.0,-100.00,SE,136,5.0,7.0,51,0.00,,,0.00,1.000000,,2013-05-29 11:11:00,
2013-05-29 04:32:00,70.0,51.0,-100.00,South,170,2.0,8.0,51,0.00,,,0.00,1.000000,,2013-05-29 11:32:00,
2013-05-29 04:42:00,70.0,51.0,-100.00,South,170,2.0,8.0,51,0.00,,,0.00,1.000000,,2013-05-29 11:42:00,
2013-05-29 04:52:00,70.0,51.0,-100.00,South,170,2.0,8.0,51,0.00,,,0.00,1.000000,,2013-05-29 11:52:00,
2013-05-29 05:01:00,70.0,51.0,-100.00,South,170,2.0,8.0,51,0.00,,,0.00,1.000000,,2013-05-29 12:01:00,
2013-05-29 05:11:00,70.0,51.0,-100.00,South,170,2.0,8.0,51,0.00,,,0.00,1.000000,,2013-05-29 12:11:00,
2013-05-29 05:42:00,68.0,50.0,-100.00,WSW,241,0.0,5.0,53,0.00,,,0.00,1.000000,,2013-05-29 12:42:00,
2013-05-29 05:52:00,68.0,50.0,-100.00,WSW,241,0.0,5.0,53,0.00,,,0.00,1.000000,,2013-05-29 12:52:00,
2013-05-29 06:01:00,68.0,50.0,-100.00,WSW,241,0.0,5.0,53,0.00,,,0.00,1.000000,,2013-05-29 13:01:00,
2013-05-29 06:11:00,68.0,50.0,-100.00,WSW,241,0.0,5.0,53,0.00,,,0.00,1.000000,,2013-05-29 13:11:00,
2013-05-29 06:32:00,68.0,52.0,-100.00,South,178,3.0,4.0,56,0.00,,,0.00,22.000000,,2013-05-29 13:32:00,
2013-05-29 06:42:00,68.0,52.0,-100.00,South,178,3.0,4.0,56,0.00,,,0.00,22.000000,,2013-05-29 13:42:00,
2013-05-29 06:53:00,68.0,52.0,-100.00,South,178,3.0,4.0,56,0.00,,,0.00,22.000000,,2013-05-29 13:53:00,
2013-05-29 07:01:00,68.0,52.0,-100.00,South,178,3.0,4.0,56,0.00,,,0.00,22.000000,,2013-05-29 14:01:00,
2013-05-29 07:11:00,68.0,52.0,-100.00,South,178,3.0,4.0,56,0.00,,,0.00,22.000000,,2013-05-29 14:11:00,
2013-05-29 07:32:00,74.0,51.0,-100.00,South,178,5.0,6.0,45,0.00,,,0.00,170.000000,,2013-05-29 14:32:00,
2013-05-29 07:42:00,74.0,51.0,-100.00,South,178,5.0,6.0,45,0.00,,,0.00,170.000000,,2013-05-29 14:42:00,
2013-05-29 07:52:00,74.0,51.0,-100.00,South,178,5.0,6.0,45,0.00,,,0.00,170.000000,,2013-05-29 14:52:00,
2013-05-29 08:01:00,74.0,51.0,-100.00,South,178,5.0,6.0,45,0.00,,,0.00,170.000000,,2013-05-29 15:01:00,
2013-05-29 08:11:00,74.0,51.0,-100.00,South,178,5.0,6.0,45,0.00,,,0.00,170.000000,,2013-05-29 15:11:00,
2013-05-29 08:33:00,78.0,55.0,-100.00,South,182,6.0,9.0,45,0.00,,,0.00,375.000000,,2013-05-29 15:33:00,
2013-05-29 08:42:00,78.0,55.0,-100.00,South,182,6.0,9.0,45,0.00,,,0.00,375.000000,,2013-05-29 15:42:00,
2013-05-29 08:53:00,78.0,55.0,-100.00,South,182,6.0,9.0,45,0.00,,,0.00,375.000000,,2013-05-29 15:53:00,
2013-05-29 09:03:00,78.0,55.0,-100.00,South,182,6.0,9.0,45,0.00,,,0.00,375.000000,,2013-05-29 16:03:00,
2013-05-29 09:12:00,78.0,55.0,-100.00,South,182,6.0,9.0,45,0.00,,,0.00,375.000000,,2013-05-29 16:12:00,
2013-05-29 09:33:00,83.0,53.0,-100.00,South,185,4.0,9.0,36,0.00,,,0.00,585.000000,,2013-05-29 16:33:00,
2013-05-29 09:42:00,83.0,53.0,-100.00,South,185,4.0,9.0,36,0.00,,,0.00,585.000000,,2013-05-29 16:42:00,
2013-05-29 09:52:00,83.0,53.0,-100.00,South,185,4.0,9.0,36,0.00,,,0.00,585.000000,,2013-05-29 16:52:00,
2013-05-29 10:02:00,83.0,53.0,-100.00,South,185,4.0,9.0,36,0.00,,,0.00,585.000000,,2013-05-29 17:02:00,
2013-05-29 10:12:00,83.0,53.0,-100.00,South,185,4.0,9.0,36,0.00,,,0.00,585.000000,,2013-05-29 17:12:00,
2013-05-29 10:32:00,87.0,53.0,-100.00,West,273,4.0,8.0,31,0.00,,,0.00,774.000000,,2013-05-29 17:32:00,
2013-05-29 10:43:00,87.0,53.0,-100.00,West,273,4.0,8.0,31,0.00,,,0.00,774.000000,,2013-05-29 17:43:00,
2013-05-29 10:52:00,87.0,53.0,-100.00,West,273,4.0,8.0,31,0.00,,,0.00,774.000000,,2013-05-29 17:52:00,
2013-05-29 11:01:00,87.0,53.0,-100.00,West,273,4.0,8.0,31,0.00,,,0.00,774.000000,,2013-05-29 18:01:00,
2013-05-29 11:13:00,87.0,53.0,-100.00,West,273,4.0,8.0,31,0.00,,,0.00,774.000000,,2013-05-29 18:13:00,
2013-05-29 11:42:00,89.0,51.0,-100.00,South,182,4.0,10.0,27,0.00,,,0.00,914.000000,,2013-05-29 18:42:00,
2013-05-29 11:52:00,89.0,51.0,-100.00,South,182,4.0,10.0,27,0.00,,,0.00,914.000000,,2013-05-29 18:52:00,
2013-05-29 12:01:00,89.0,51.0,-100.00,South,182,4.0,10.0,27,0.00,,,0.00,914.000000,,2013-05-29 19:01:00,
2013-05-29 12:11:00,89.0,51.0,-100.00,South,182,4.0,10.0,27,0.00,,,0.00,914.000000,,2013-05-29 19:11:00,
2013-05-29 12:44:00,93.0,50.0,-100.00,West,260,4.0,11.0,23,0.00,,,0.00,1001.000000,,2013-05-29 19:44:00,
2013-05-29 12:53:00,93.0,50.0,-100.00,West,260,4.0,11.0,23,0.00,,,0.00,1001.000000,,2013-05-29 19:53:00,
2013-05-29 13:02:00,93.0,50.0,-100.00,West,260,4.0,11.0,23,0.00,,,0.00,1001.000000,,2013-05-29 20:02:00,
2013-05-29 13:11:00,93.0,50.0,-100.00,West,260,4.0,11.0,23,0.00,,,0.00,1001.000000,,2013-05-29 20:11:00,
2013-05-29 13:33:00,93.0,48.0,-100.00,South,180,8.0,15.0,22,0.00,,,0.00,1022.000000,,2013-05-29 20:33:00,
2013-05-29 13:42:00,93.0,48.0,-100.00,South,180,8.0,15.0,22,0.00,,,0.00,1022.000000,,2013-05-29 20:42:00,
2013-05-29 13:52:00,93.0,48.0,-100.00,South,180,8.0,15.0,22,0.00,,,0.00,1022.000000,,2013-05-29 20:52:00,
2013-05-29 14:02:00,93.0,48.0,-100.00,South,180,8.0,15.0,22,0.00,,,0.00,1022.000000,,2013-05-29 21:02:00,
2013-05-29 14:12:00,93.0,48.0,-100.00,South,180,8.0,15.0,22,0.00,,,0.00,1022.000000,,2013-05-29 21:12:00,
2013-05-29 14:44:00,96.0,48.0,-100.00,South,186,6.0,14.0,20,0.00,,,0.00,987.000000,,2013-05-29 21:44:00,
2013-05-29 14:53:00,96.0,48.0,-100.00,South,186,6.0,14.0,20,0.00,,,0.00,987.000000,,2013-05-29 21:53:00,
2013-05-29 15:03:00,96.0,48.0,-100.00,South,186,6.0,14.0,20,0.00,,,0.00,987.000000,,2013-05-29 22:03:00,
2013-05-29 15:12:00,96.0,48.0,-100.00,South,186,6.0,14.0,20,0.00,,,0.00,987.000000,,2013-05-29 22:12:00,
2013-05-29 15:34:00,97.0,48.0,-100.00,SSW,206,10.0,17.0,19,0.00,,,0.00,893.000000,,2013-05-29 22:34:00,
2013-05-29 15:42:00,97.0,48.0,-100.00,SSW,206,10.0,17.0,19,0.00,,,0.00,893.000000,,2013-05-29 22:42:00,
2013-05-29 15:53:00,97.0,48.0,-100.00,SSW,206,10.0,17.0,19,0.00,,,0.00,893.000000,,2013-05-29 22:53:00,
2013-05-29 16:02:00,97.0,48.0,-100.00,SSW,206,10.0,17.0,19,0.00,,,0.00,893.000000,,2013-05-29 23:02:00,
2013-05-29 16:12:00,97.0,48.0,-100.00,SSW,206,10.0,17.0,19,0.00,,,0.00,893.000000,,2013-05-29 23:12:00,
2013-05-29 16:33:00,97.0,51.0,-100.00,South,185,13.0,21.0,21,0.00,,,0.00,735.000000,,2013-05-29 23:33:00,
2013-05-29 16:42:00,97.0,51.0,-100.00,South,185,13.0,21.0,21,0.00,,,0.00,735.000000,,2013-05-29 23:42:00,
2013-05-29 16:53:00,97.0,51.0,-100.00,South,185,13.0,21.0,21,0.00,,,0.00,735.000000,,2013-05-29 23:53:00,
2013-05-29 17:01:00,97.0,51.0,-100.00,South,185,13.0,21.0,21,0.00,,,0.00,735.000000,,2013-05-30 00:01:00,
2013-05-29 17:11:00,97.0,51.0,-100.00,South,185,13.0,21.0,21,0.00,,,0.00,735.000000,,2013-05-30 00:11:00,
2013-05-29 18:32:00,94.0,47.0,-100.00,SSW,195,15.0,22.0,20,-99.99,,,0.00,331.000000,,2013-05-30 01:32:00,
2013-05-29 18:42:00,94.0,47.0,-100.00,SSW,195,15.0,22.0,20,-99.99,,,0.00,331.000000,,2013-05-30 01:42:00,
2013-05-29 18:52:00,94.0,47.0,-100.00,SSW,195,15.0,22.0,20,-99.99,,,0.00,331.000000,,2013-05-30 01:52:00,
2013-05-29 19:01:00,94.0,47.0,-100.00,SSW,195,15.0,22.0,20,-99.99,,,0.00,331.000000,,2013-05-30 02:01:00,
2013-05-29 19:11:00,94.0,47.0,-100.00,SSW,195,15.0,22.0,20,-99.99,,,0.00,331.000000,,2013-05-30 02:11:00,
2013-05-29 20:01:00,91.0,47.0,-100.00,South,187,14.0,21.0,22,0.00,,,0.00,131.000000,,2013-05-30 03:01:00,
2013-05-29 20:11:00,91.0,47.0,-100.00,South,187,14.0,21.0,22,0.00,,,0.00,131.000000,,2013-05-30 03:11:00,
2013-05-29 20:33:00,86.0,47.0,-100.00,South,186,10.0,16.0,26,0.00,,,-99.99,9.000000,,2013-05-30 03:33:00,
2013-05-29 20:43:00,86.0,47.0,-100.00,South,186,10.0,16.0,26,0.00,,,-99.99,9.000000,,2013-05-30 03:43:00,
2013-05-29 20:53:00,86.0,47.0,-100.00,South,186,10.0,16.0,26,0.00,,,-99.99,9.000000,,2013-05-30 03:53:00,
2013-05-29 21:02:00,86.0,47.0,-100.00,South,186,10.0,16.0,26,0.00,,,-99.99,9.000000,,2013-05-30 04:02:00,
2013-05-29 21:12:00,86.0,47.0,-100.00,South,186,10.0,16.0,26,0.00,,,-99.99,9.000000,,2013-05-30 04:12:00,
2013-05-29 21:33:00,83.0,48.0,-100.00,South,177,9.0,13.0,30,0.00,,,0.00,1.000000,,2013-05-30 04:33:00,
2013-05-29 21:42:00,83.0,48.0,-100.00,South,177,9.0,13.0,30,0.00,,,0.00,1.000000,,2013-05-30 04:42:00,
2013-05-29 21:53:00,83.0,48.0,-100.00,South,177,9.0,13.0,30,0.00,,,0.00,1.000000,,2013-05-30 04:53:00,
2013-05-29 22:02:00,83.0,48.0,-100.00,South,177,9.0,13.0,30,0.00,,,0.00,1.000000,,2013-05-30 05:02:00,
2013-05-29 22:12:00,83.0,48.0,-100.00,South,177,9.0,13.0,30,0.00,,,0.00,1.000000,,2013-05-30 05:12:00,
2013-05-29 22:32:00,79.0,50.0,-100.00,South,172,5.0,9.0,37,0.00,,,0.00,1.000000,,2013-05-30 05:32:00,
2013-05-29 22:43:00,79.0,50.0,-100.00,South,172,5.0,9.0,37,0.00,,,0.00,1.000000,,2013-05-30 05:43:00,
2013-05-29 22:52:00,79.0,50.0,-100.00,South,172,5.0,9.0,37,0.00,,,0.00,1.000000,,2013-05-30 05:52:00,
2013-05-29 23:01:00,79.0,50.0,-100.00,South,172,5.0,9.0,37,0.00,,,0.00,1.000000,,2013-05-30 06:01:00,
2013-05-29 23:12:00,79.0,50.0,-100.00,South,172,5.0,9.0,37,0.00,,,0.00,1.000000,,2013-05-30 06:12:00,
2013-05-29 23:32:00,79.0,54.0,-100.00,SSE,157,7.0,12.0,42,0.00,,,0.00,1.000000,,2013-05-30 06:32:00,
2013-05-29 23:42:00,79.0,54.0,-100.00,SSE,157,7.0,12.0,42,0.00,,,0.00,1.000000,,2013-05-30 06:42:00,
2013-05-29 23:52:00,79.0,54.0,-100.00,SSE,157,7.0,12.0,42,0.00,,,0.00,1.000000,,2013-05-30 06:52:00,